sat.trackr.live / text

‹ back to catalog

STARLINK-36498

NORAD 67318 · 2026-002P

PAYLOAD ACTIVE UNKNOWN

§ Identity

Operator
Country
US
Launch date
2026-01-04
Launch site
AFETR
Launch vehicle
Mass (kg)
RCS (m²)

Purposes: comms

External: N2YO · Heavens-Above · Gunter

§ Orbital elements

Epoch: 2026-05-24T15:25:55.934400Z

Period
94.27 min
Inclination
43.0031°
Eccentricity
0.0001733
Mean motion
15.27579292 rev/d
Perigee alt
481.9 km
Apogee alt
484.2 km
Semi-major
6,861.2 km
B*
8.0212e-4
RAAN
256.4429°
Arg perigee
281.9739°
Mean anomaly
78.0919°
Rev number
2,275

§ Raw data

STARLINK-364981 67318U 26002P   26144.64300850  .00021876  00000+0  80212-3 0  99972 67318  43.0031 256.4429 0001733 281.9739  78.0919 15.27579292 22752

JSON: /api/v1/satellites/67318 · /tle

For live sub-satellite position, see the globe view (requires WebGL).

§ Visibility from observer

Set your observer location to see the next 7 days of passes ≥ 10°. The values pass through the URL so the page stays shareable.

No JS? Fill the form by hand. The geolocation button needs JavaScript.